• Join FlightAware (Why Join?)
  • Login
  • US Flag GB Flag 
05:45 EST


 

Airport Tracker/Info


-or-


 

Live Flight TrackerFlight Track Log ✈ SWA554 ✈ 11-Apr-2013 ✈ KLAS - KPHX

Flight Track Log - Related Links

Times and Time Zones

All times are in EDT time to prevent confusion due to time zone crossing. See the SWA554 flight status page for this flight to view local times or setup timezone preferences in your user account.

Time Position Orientation Groundspeed Altitude Reporting Facility
EDT Latitude Longitude Course Direction KTS MPH feet Rate Location/Type
09:20 36.0764 -115.1600 268° West 185 213 3,100  Level Los Angeles Center
09:21 36.0747 -115.2219 268° West 206 237 6,000 3,111 Climbing Los Angeles Center
09:21 36.0661 -115.2481 248° West 218 251 7,300 3,491 Climbing Los Angeles Center
09:22 36.0353 -115.2694 209° Southwest 245 282 9,200 3,541 Climbing Los Angeles Center
09:22 36.0031 -115.2822 198° South 244 281 10,900 3,699 Climbing Los Angeles Center
09:23 35.9425 -115.2892 185° South 313 360 13,700 3,836 Climbing Los Angeles Center
09:23 35.9172 -115.2769 159° South 299 344 14,800 4,000 Climbing Los Angeles Center
09:24 35.8711 -115.2489 154° Southeast 356 410 16,900 3,738 Climbing Los Angeles Center
09:24 35.8469 -115.1978 120° Southeast 359 413 18,600 2,164 Climbing Los Angeles Center
09:25 35.8336 -115.1258 103° East 397 457 19,100 393 Climbing Los Angeles Center
09:25 35.8236 -115.0642 101° East 394 453 19,000 -63 Descending Los Angeles Center
09:26 35.8322 -114.9308 85° East 392 451 19,000 1,082 Level Los Angeles Center
09:27 35.8419 -114.7944 85° East 398 458 21,200 1,967 Climbing Los Angeles Center
09:28 35.8519 -114.6514 85° East 418 481 23,000 2,213 Climbing Los Angeles Center
09:29 35.8111 -114.5147 110° East 434 499 25,700 2,902 Climbing Los Angeles Center
09:30 35.7472 -114.3925 123° Southeast 427 491 28,900 1,623 Climbing Los Angeles Center
09:31 35.6692 -114.2469 123° Southeast 441 507 29,000 49 Climbing Los Angeles Center
09:32 35.5944 -114.1028 122° Southeast 487 560 29,000  Level Los Angeles Center
09:33 35.5203 -113.9639 123° Southeast 489 563 29,000  Level Los Angeles Center
09:34 35.4447 -113.8250 124° Southeast 491 565 29,000  Level Los Angeles Center
09:35 35.3697 -113.6892 124° Southeast 487 560 29,000  Level Los Angeles Center
09:36 35.2953 -113.5511 123° Southeast 488 562 29,000  Level Los Angeles Center
09:37 35.2047 -113.3858 124° Southeast 492 566 29,000  Level Los Angeles Center
09:38 35.1292 -113.2489 124° Southeast 493 567 29,000  Level Los Angeles Center
09:39 35.0550 -113.1117 123° Southeast 494 568 29,000  Level Albuquerque Center
09:40 34.9786 -112.9739 124° Southeast 496 571 29,000  Level Albuquerque Center
09:41 34.9017 -112.8364 124° Southeast 497 572 29,000  Level Albuquerque Center
09:42 34.8250 -112.7003 124° Southeast 494 568 29,000 -639 Level Albuquerque Center
09:43 34.7503 -112.5647 124° Southeast 489 563 27,700 -1,561 Descending Albuquerque Center
09:44 34.6692 -112.4419 129° Southeast 475 547 25,800 -2,341 Descending Albuquerque Center
09:45 34.5656 -112.3478 143° Southeast 450 518 22,900 -2,705 Descending Albuquerque Center
09:46 34.4711 -112.2556 141° Southeast 439 505 20,300 -1,770 Descending Albuquerque Center
09:48 34.3444 -112.2036 161° South 402 463 19,300 -1,525 Descending Albuquerque Center
09:49 34.2419 -112.1764 168° South 384 442 17,200 -2,164 Descending Albuquerque Center
09:50 34.1375 -112.1492 168° South 377 434 14,900 -1,707 Descending Albuquerque Center
09:51 34.0469 -112.1403 175° South 342 394 13,700 -1,415 Descending Albuquerque Center
09:52 33.9594 -112.1497 185° South 320 368 12,000 -1,672 Descending Albuquerque Center
09:53 33.8747 -112.1617 187° South 310 357 10,300 -1,623 Descending Albuquerque Center
09:54 33.7931 -112.1797 190° South 301 346 8,700 -1,268 Descending Albuquerque Center
09:55 33.7133 -112.1964 190° South 293 337 7,700 -1,024 Descending Albuquerque Center
09:56 33.6297 -112.2150 191° South 256 295 6,600 -984 Descending Albuquerque Center
09:57 33.5619 -112.2103 177° South 245 282 5,700 -934 Descending Albuquerque Center
09:58 33.4964 -112.2050 176° South 238 274 4,700 -1,024 Descending Albuquerque Center
09:59 33.4581 -112.1450 127° Southeast 231 266 3,600 -1,171 Descending Albuquerque Center
10:00 33.4408 -112.0933 112° Southeast 169 194 2,300 -1,033 Descending Albuquerque Center
10:01 33.4403 -112.0486 91° East 138 159 1,500 -590 Descending Albuquerque Center
10:02 33.4408 -112.0069 89° East 120 138 1,100 -393 Descending Albuquerque Center